Location: Unspecified
(38.0989°N, 0.6729°W)
Time: 21:08:01
(UTC+01:00)

ISS - Pass Details

Date: 28 November 2017
Orbit: 402 x 407 km, 51.6° (Epoch: 13 December)

Event Time Altitude Azimuth Distance (km) Brightness Sun altitude
Rises 18:08:42 0° 207° (SSW) 2,314 0.9 -5.3°
Reaches altitude 10° 18:10:55 10° 196° (SSW) 1,458 -0.4 -5.7°
Maximum altitude 18:13:50 30° 133° (SE) 757 -2.7 -6.2°
Drops below altitude 10° 18:16:45 10° 70° (ENE) 1,464 -1.7 -6.7°
Enters shadow 18:17:00 - 69° (ENE) 1,556 -1.6 -6.8°
